TimeEST,TemperatureF,Dew PointF,Humidity,Sea Level PressureIn,VisibilityMPH,Wind Direction,Wind SpeedMPH,Gust SpeedMPH,PrecipitationIn,Events,Conditions,WindDirDegrees,DateUTC
12:15 AM,46.4,35.6,66,29.96,10.0,Calm,Calm,-,N/A,,Overcast,0,2013-02-13 05:15:00
12:35 AM,44.6,37.4,76,29.96,10.0,Calm,Calm,-,N/A,,Overcast,0,2013-02-13 05:35:00
12:55 AM,50.0,35.6,58,29.95,-9999.0,SSW,6.9,-,N/A,Rain,Rain,200,2013-02-13 05:55:00
1:15 AM,50.0,37.4,62,29.96,10.0,SSE,5.8,-,N/A,,Unknown,160,2013-02-13 06:15:00
1:35 AM,46.4,39.2,76,29.96,10.0,SW,4.6,-,0.01,,Unknown,220,2013-02-13 06:35:00
1:55 AM,44.6,41.0,87,29.93,10.0,Calm,Calm,-,0.01,,Unknown,0,2013-02-13 06:55:00
2:15 AM,44.6,42.8,93,29.93,10.0,Calm,Calm,-,N/A,,Mostly Cloudy,0,2013-02-13 07:15:00
2:35 AM,44.6,42.8,93,29.89,10.0,Calm,Calm,-,N/A,,Overcast,0,2013-02-13 07:35:00
2:55 AM,42.8,42.8,100,29.88,10.0,Calm,Calm,-,N/A,,Overcast,0,2013-02-13 07:55:00
3:15 AM,44.6,42.8,93,29.88,10.0,Calm,Calm,-,N/A,,Overcast,0,2013-02-13 08:15:00
3:35 AM,44.6,42.8,93,29.87,10.0,Calm,Calm,-,N/A,,Overcast,0,2013-02-13 08:35:00
3:55 AM,44.6,42.8,93,29.88,10.0,Calm,Calm,-,N/A,,Overcast,0,2013-02-13 08:55:00
4:15 AM,44.6,42.8,93,29.86,10.0,Calm,Calm,-,N/A,,Overcast,0,2013-02-13 09:15:00
4:35 AM,44.6,42.8,93,29.86,10.0,Calm,Calm,-,N/A,,Mostly Cloudy,0,2013-02-13 09:35:00
4:55 AM,44.6,42.8,93,29.85,10.0,Calm,Calm,-,N/A,,Overcast,0,2013-02-13 09:55:00
5:15 AM,44.6,42.8,93,29.85,10.0,Calm,Calm,-,N/A,,Overcast,0,2013-02-13 10:15:00
5:35 AM,44.6,42.8,93,29.84,10.0,Calm,Calm,-,N/A,,Overcast,0,2013-02-13 10:35:00
5:55 AM,44.6,42.8,93,29.84,10.0,Calm,Calm,-,N/A,,Overcast,0,2013-02-13 10:55:00
6:15 AM,44.6,42.8,93,29.85,7.0,Calm,Calm,-,0.01,Rain,Rain,0,2013-02-13 11:15:00
6:35 AM,42.8,42.8,100,29.84,10.0,Calm,Calm,-,0.04,Rain,Light Rain,0,2013-02-13 11:35:00
6:55 AM,42.8,42.8,100,29.83,10.0,ESE,3.5,-,0.04,Rain,Light Rain,120,2013-02-13 11:55:00
7:15 AM,42.8,42.8,100,29.86,10.0,Calm,Calm,-,0.01,Rain,Light Rain,0,2013-02-13 12:15:00
7:35 AM,42.8,42.8,100,29.86,10.0,Calm,Calm,-,0.01,Rain,Light Rain,0,2013-02-13 12:35:00
7:55 AM,42.8,42.8,100,29.86,7.0,Calm,Calm,-,0.02,,Unknown,0,2013-02-13 12:55:00
8:15 AM,44.6,44.6,100,29.86,10.0,Calm,Calm,-,N/A,Rain,Light Rain,0,2013-02-13 13:15:00
8:35 AM,44.6,44.6,100,29.87,10.0,Calm,Calm,-,N/A,Rain,Light Rain,0,2013-02-13 13:35:00
8:55 AM,44.6,44.6,100,29.86,10.0,SE,3.5,-,0.01,Rain,Light Rain,130,2013-02-13 13:55:00
9:15 AM,44.6,44.6,100,29.87,10.0,South,3.5,-,N/A,,Overcast,170,2013-02-13 14:15:00
9:35 AM,44.6,44.6,100,29.85,7.0,Calm,Calm,-,N/A,Rain,Rain,0,2013-02-13 14:35:00
9:55 AM,44.6,44.6,100,29.85,7.0,SSW,4.6,-,N/A,,Light Drizzle,200,2013-02-13 14:55:00
10:15 AM,44.6,44.6,100,29.84,5.0,South,3.5,-,N/A,Rain,Rain,190,2013-02-13 15:15:00
10:35 AM,44.6,44.6,100,29.83,3.0,Calm,Calm,-,0.01,,Drizzle,0,2013-02-13 15:35:00
10:55 AM,44.6,44.6,100,29.80,3.0,Calm,Calm,-,0.01,,Drizzle,0,2013-02-13 15:55:00
11:15 AM,44.6,44.6,100,29.82,3.0,Calm,Calm,-,N/A,Rain,Light Rain,0,2013-02-13 16:15:00
11:35 AM,44.6,44.6,100,29.80,2.5,Calm,Calm,-,0.01,Rain,Light Rain,0,2013-02-13 16:35:00
11:55 AM,44.6,44.6,100,29.78,7.0,East,6.9,-,0.01,,Overcast,100,2013-02-13 16:55:00
12:15 PM,44.6,44.6,100,29.76,10.0,East,3.5,-,N/A,,Overcast,90,2013-02-13 17:15:00
12:35 PM,46.4,44.6,93,29.73,10.0,East,4.6,-,N/A,,Overcast,90,2013-02-13 17:35:00
12:55 PM,46.4,44.6,93,29.72,10.0,East,3.5,-,N/A,,Overcast,90,2013-02-13 17:55:00
1:15 PM,46.4,44.6,93,29.68,10.0,East,4.6,-,N/A,,Overcast,80,2013-02-13 18:15:00
1:35 PM,46.4,44.6,93,29.70,10.0,Calm,Calm,-,N/A,,Overcast,0,2013-02-13 18:35:00
1:55 PM,46.4,44.6,93,29.66,10.0,ENE,6.9,-,N/A,,Overcast,70,2013-02-13 18:55:00
2:15 PM,44.6,44.6,100,29.67,7.0,Calm,Calm,-,N/A,,Overcast,0,2013-02-13 19:15:00
2:35 PM,44.6,44.6,100,29.64,3.0,East,3.5,-,N/A,Rain,Light Rain,90,2013-02-13 19:35:00
2:55 PM,44.6,44.6,100,29.65,-9999.0,Calm,Calm,-,N/A,,Drizzle,0,2013-02-13 19:55:00
3:15 PM,44.6,44.6,100,29.66,1.2,Calm,Calm,-,N/A,,Heavy Drizzle,0,2013-02-13 20:15:00
3:35 PM,44.6,44.6,100,29.66,2.0,Calm,Calm,-,0.01,,Drizzle,0,2013-02-13 20:35:00
3:55 PM,44.6,44.6,100,29.65,2.5,Calm,Calm,-,0.01,Rain,Light Rain,0,2013-02-13 20:55:00
4:15 PM,44.6,44.6,100,29.65,1.5,Calm,Calm,-,N/A,,Unknown,0,2013-02-13 21:15:00
4:35 PM,44.6,44.6,100,29.65,1.2,Calm,Calm,-,0.01,,Heavy Drizzle,0,2013-02-13 21:35:00
4:55 PM,44.6,44.6,100,29.64,2.5,Calm,Calm,-,0.02,Rain,Rain,0,2013-02-13 21:55:00
5:15 PM,44.6,44.6,100,29.65,-9999.0,Calm,Calm,-,N/A,Rain,Light Rain,0,2013-02-13 22:15:00
5:35 PM,44.6,44.6,100,29.64,2.5,Calm,Calm,-,0.01,Rain,Light Rain,0,2013-02-13 22:35:00
5:55 PM,44.6,44.6,100,29.65,2.5,Calm,Calm,-,0.01,Rain,Light Rain,0,2013-02-13 22:55:00
6:15 PM,44.6,44.6,100,29.66,2.0,Calm,Calm,-,0.01,,Unknown,0,2013-02-13 23:15:00
6:35 PM,44.6,44.6,100,29.66,2.5,Calm,Calm,-,0.01,Rain,Light Rain,0,2013-02-13 23:35:00
6:55 PM,44.6,44.6,100,29.68,2.5,Calm,Calm,-,0.01,Rain,Light Rain,0,2013-02-13 23:55:00
7:15 PM,44.6,44.6,100,29.68,3.0,Calm,Calm,-,N/A,Rain,Light Rain,0,2013-02-14 00:15:00
7:35 PM,44.6,44.6,100,29.67,3.0,East,3.5,-,0.01,,Overcast,90,2013-02-14 00:35:00
7:55 PM,44.6,44.6,100,29.68,4.0,West,3.5,-,0.01,,Overcast,260,2013-02-14 00:55:00
8:15 PM,44.6,44.6,100,29.68,5.0,WSW,5.8,-,N/A,,Overcast,250,2013-02-14 01:15:00
8:35 PM,44.6,44.6,100,29.69,10.0,WSW,5.8,-,N/A,,Overcast,250,2013-02-14 01:35:00
8:55 PM,44.6,44.6,100,29.70,10.0,WSW,5.8,-,N/A,,Overcast,250,2013-02-14 01:55:00
9:15 PM,44.6,44.6,100,29.71,-9999.0,WSW,5.8,-,N/A,,Overcast,240,2013-02-14 02:15:00
9:35 PM,44.6,44.6,100,29.71,10.0,SW,4.6,-,N/A,,Overcast,230,2013-02-14 02:35:00
9:55 PM,44.6,44.6,100,29.73,10.0,WSW,5.8,-,N/A,,Overcast,240,2013-02-14 02:55:00
10:15 PM,44.6,44.6,100,29.73,10.0,West,3.5,-,N/A,,Overcast,260,2013-02-14 03:15:00
10:35 PM,44.6,44.6,100,29.74,7.0,West,6.9,-,N/A,,Drizzle,270,2013-02-14 03:35:00
10:55 PM,42.8,41.0,93,29.77,10.0,WNW,10.4,25.3,0.01,,Overcast,290,2013-02-14 03:55:00
11:15 PM,41.0,39.2,93,29.78,10.0,West,6.9,-,N/A,,Mostly Cloudy,280,2013-02-14 04:15:00
11:35 PM,39.2,37.4,93,29.79,10.0,WNW,5.8,-,N/A,,Scattered Clouds,290,2013-02-14 04:35:00
11:55 PM,37.4,37.4,100,29.81,10.0,West,5.8,-,N/A,,Clear,280,2013-02-14 04:55:00